Tracking 22836 objects as of 16-Apr-2021
HD Live streaming from Space Station
objects crossing your sky now

NSS 5 (INTELSAT 803)

Track NSS 5 (INTELSAT 803) now!
NSS 5 (INTELSAT 803) is classified as:


NORAD ID: 24957
Int'l Code: 1997-053A
Perigee: 35,779.5 km
Apogee: 35,809.1 km
Inclination: 6.6 °
Period: 1,436.1 minutes
Semi major axis: 42165 km
RCS: 25.1188 m2 (large)
Launch date: September 23, 1997
Source: Netherlands (NETH)
Launch site: FRENCH GUIANA (FRGUI)

38 C-band, 6 Ku-band; Pacific Ocean region; shared capacity with Intelset.
aabbcc
Your satellite tracking list
Your tracking list is empty




NASA's NSSDC Master Catalog

Two Line Element Set (TLE):
1 24957U 97053A   21106.10335543  .00000110  00000-0  00000+0 0  9996
2 24957   6.5778  62.0423 0003513 315.2307 274.9179  1.00269791 86303
Source of the keplerian elements: AFSPC